Total_Precipitation_Accumulation
0.91 0.94 1.06 1.17 1.17 1.13 1.12 1.10 1.20 1.22 1.25 1.28 1.30 1.30 1.29 1.37 1.58 1.82 1.76 1.71 1.74 1.80 1.88 2.04 2.10 2.23 2.23 2.09 2.07 2.05 2.11 2.23 2.04 1.72 1.62 1.53 1.39 1.25 1.23 1.16 1.07 1.06 1.04
0.70 0.77 0.87 0.99 0.99 0.99 1.02 1.15 1.23 1.21 1.14 1.05 1.09 1.16 1.15 1.26 1.52 1.84 1.98 1.98 2.00 1.95 2.02 2.23 2.26 2.27 2.23 2.14 2.17 2.14 2.09 2.22 2.10 1.83 1.75 1.64 1.51 1.35 1.26 1.20 1.04 0.99 1.03
0.64 0.67 0.72 0.85 0.98 1.03 1.08 1.15 1.23 1.25 1.20 1.19 1.20 1.20 1.32 1.41 1.45 1.63 1.82 1.90 1.94 1.93 2.06 2.13 2.11 2.18 2.13 2.11 2.01 1.97 1.95 2.10 2.22 2.02 1.95 1.93 1.76 1.56 1.46 1.32 1.17 1.16 1.00
0.53 0.62 0.70 0.83 1.00 1.12 1.16 1.22 1.29 1.32 1.29 1.33 1.33 1.36 1.46 1.50 1.47 1.56 1.72 1.84 1.90 1.92 1.99 2.06 2.12 2.11 2.14 2.23 2.11 2.08 2.17 2.27 2.32 2.25 2.14 2.20 2.09 1.86 1.68 1.49 1.33 1.23 1.13
0.64 0.72 0.79 0.92 1.00 1.09 1.22 1.32 1.42 1.44 1.37 1.43 1.49 1.48 1.48 1.42 1.38 1.60 1.73 1.74 1.87 1.93 1.92 1.88 1.95 2.14 2.22 2.24 2.07 2.12 2.26 2.24 2.19 2.20 2.15 2.25 2.24 2.08 1.77 1.51 1.42 1.38 1.27
0.87 0.93 0.98 1.05 1.13 1.16 1.23 1.28 1.41 1.45 1.49 1.57 1.62 1.65 1.56 1.37 1.57 1.68 1.69 1.72 1.81 1.86 1.85 1.77 1.70 1.72 1.81 1.92 1.92 1.88 1.92 1.97 2.02 2.04 2.07 2.14 2.17 2.06 1.87 1.67 1.56 1.46 1.38
1.08 1.24 1.28 1.28 1.33 1.36 1.38 1.39 1.42 1.55 1.65 1.67 1.63 1.62 1.60 1.66 1.70 1.55 1.48 1.40 1.45 1.53 1.52 1.49 1.31 1.23 1.47 1.56 1.70 1.69 1.58 1.55 1.60 1.74 1.86 1.90 2.04 2.09 2.05 1.85 1.79 1.68 1.51
1.30 1.43 1.56 1.61 1.67 1.72 1.78 1.76 1.77 1.81 1.89 1.83 1.72 1.71 1.78 1.82 1.83 1.58 1.47 1.34 1.33 1.33 1.31 1.27 1.27 1.27 1.32 1.43 1.48 1.47 1.42 1.38 1.39 1.41 1.52 1.72 1.90 2.07 2.08 1.98 1.94 1.82 1.64
1.60 1.71 1.81 1.88 1.91 1.91 1.92 2.02 2.10 2.20 2.21 2.11 2.05 2.08 2.11 2.20 2.20 1.90 1.76 1.53 1.46 1.39 1.40 1.44 1.45 1.33 1.37 1.32 1.32 1.32 1.32 1.37 1.38 1.38 1.39 1.56 1.74 1.86 2.01 1.98 1.91 1.81 1.64
1.70 1.80 1.96 2.07 2.13 2.11 2.13 2.27 2.43 2.55 2.52 2.49 2.50 2.53 2.47 2.46 2.40 2.04 1.90 1.69 1.68 1.63 1.64 1.55 1.48 1.32 1.27 1.20 1.19 1.24 1.20 1.22 1.33 1.34 1.33 1.41 1.54 1.67 1.84 1.81 1.74 1.75 1.61
1.96 1.98 2.02 2.13 2.25 2.29 2.35 2.41 2.57 2.68 2.66 2.62 2.57 2.52 2.44 2.43 2.37 2.05 1.89 1.71 1.72 1.75 1.68 1.60 1.51 1.38 1.20 1.15 1.08 1.08 1.09 1.15 1.22 1.27 1.35 1.45 1.57 1.69 1.71 1.71 1.71 1.64 1.59
2.20 2.28 2.28 2.29 2.22 2.20 2.38 2.52 2.64 2.77 2.73 2.68 2.69 2.57 2.47 2.42 2.22 1.99 1.81 1.71 1.78 1.83 1.79 1.71 1.63 1.49 1.23 1.14 1.01 0.99 1.00 0.96 1.07 1.18 1.24 1.35 1.48 1.64 1.74 1.80 1.81 1.69 1.53
2.14 2.17 2.24 2.26 2.28 2.29 2.43 2.59 2.73 2.77 2.68 2.55 2.53 2.50 2.39 2.30 2.22 1.99 1.77 1.67 1.68 1.68 1.78 1.86 1.69 1.51 1.32 1.17 1.13 1.08 0.98 0.90 1.04 1.16 1.14 1.19 1.29 1.47 1.74 1.94 2.03 1.97 1.69
1.80 1.83 1.84 1.96 2.08 2.24 2.42 2.48 2.56 2.63 2.63 2.60 2.55 2.47 2.42 2.38 2.36 2.16 1.90 1.70 1.66 1.71 1.77 1.80 1.66 1.52 1.32 1.19 1.18 1.08 0.94 0.91 0.98 1.07 1.14 1.21 1.33 1.44 1.60 1.79 1.99 2.03 1.84
1.61 1.63 1.69 1.79 1.90 2.07 2.29 2.43 2.38 2.40 2.56 2.46 2.31 2.20 2.13 2.07 2.14 2.02 1.78 1.67 1.64 1.73 1.79 1.84 1.76 1.65 1.53 1.38 1.29 1.26 1.22 1.15 1.07 1.08 1.22 1.28 1.32 1.31 1.39 1.53 1.76 1.87 1.72
1.45 1.46 1.49 1.52 1.62 1.75 1.92 2.04 2.02 1.80 1.83 1.74 1.58 1.44 1.39 1.42 1.48 1.40 1.30 1.25 1.30 1.44 1.55 1.72 1.73 1.62 1.53 1.49 1.46 1.39 1.34 1.27 1.20 1.19 1.20 1.25 1.25 1.27 1.32 1.42 1.54 1.64 1.59
1.52 1.44 1.42 1.43 1.50 1.55 1.59 1.65 1.70 1.56 1.39 1.32 1.18 1.04 0.95 0.96 1.04 1.09 1.12 1.11 1.16 1.19 1.25 1.45 1.47 1.44 1.43 1.45 1.43 1.32 1.23 1.25 1.29 1.24 1.17 1.22 1.28 1.29 1.32 1.40 1.46 1.54 1.57
1.79 1.72 1.57 1.49 1.48 1.43 1.44 1.48 1.58 1.59 1.49 1.30 1.10 0.89 0.78 0.77 0.86 1.01 1.16 1.09 1.09 1.07 1.08 1.22 1.27 1.30 1.34 1.40 1.41 1.39 1.34 1.35 1.37 1.33 1.30 1.33 1.40 1.41 1.38 1.40 1.48 1.51 1.56
1.68 1.66 1.56 1.52 1.52 1.50 1.50 1.54 1.61 1.61 1.63 1.56 1.30 1.02 0.87 0.82 0.88 1.04 1.12 1.03 1.08 1.09 1.12 1.21 1.26 1.26 1.30 1.38 1.40 1.40 1.40 1.43 1.42 1.41 1.41 1.42 1.49 1.54 1.44 1.37 1.44 1.52 1.49
1.39 1.42 1.35 1.36 1.37 1.44 1.47 1.47 1.48 1.54 1.55 1.52 1.37 1.12 0.86 0.77 0.80 1.00 1.09 1.15 1.21 1.23 1.24 1.24 1.32 1.35 1.34 1.33 1.36 1.36 1.38 1.41 1.41 1.39 1.43 1.48 1.51 1.51 1.41 1.38 1.38 1.45 1.40
1.21 1.19 1.12 1.16 1.24 1.31 1.36 1.36 1.34 1.33 1.35 1.34 1.26 0.99 0.77 0.71 0.82 0.96 1.08 1.19 1.24 1.28 1.29 1.29 1.30 1.26 1.26 1.29 1.31 1.31 1.37 1.39 1.38 1.37 1.41 1.46 1.47 1.45 1.40 1.38 1.38 1.39 1.43
1.16 1.12 0.98 1.01 1.17 1.22 1.21 1.26 1.22 1.18 1.19 1.21 1.12 0.89 0.79 0.77 0.89 1.02 1.17 1.22 1.22 1.24 1.23 1.23 1.21 1.20 1.18 1.21 1.27 1.31 1.36 1.35 1.33 1.32 1.35 1.37 1.38 1.37 1.36 1.36 1.38 1.41 1.43
0.98 1.02 0.92 0.92 1.05 1.06 1.09 1.24 1.27 1.25 1.24 1.22 1.08 0.96 0.91 0.98 1.08 1.18 1.27 1.27 1.19 1.15 1.14 1.15 1.14 1.11 1.05 1.07 1.11 1.17 1.25 1.28 1.24 1.24 1.27 1.25 1.26 1.24 1.23 1.22 1.25 1.33 1.37
0.75 0.86 0.82 0.77 0.83 0.93 1.03 1.18 1.28 1.25 1.25 1.27 1.18 1.06 1.04 1.09 1.15 1.20 1.23 1.19 1.11 1.11 1.10 1.05 0.99 0.95 0.93 0.99 1.03 0.98 0.96 0.96 0.96 1.01 1.08 1.11 1.16 1.20 1.17 1.15 1.20 1.26 1.35
0.71 0.82 0.76 0.69 0.69 0.79 0.93 1.08 1.15 1.15 1.13 1.12 1.04 0.96 0.96 1.01 1.06 1.05 1.02 0.99 0.97 0.96 0.92 0.90 0.91 0.88 0.83 0.77 0.76 0.73 0.75 0.73 0.70 0.74 0.86 0.97 1.01 1.10 1.17 1.21 1.27 1.35 1.39
0.68 0.77 0.76 0.67 0.65 0.73 0.90 1.00 1.07 1.11 1.13 1.09 1.03 1.00 1.00 1.01 0.96 0.91 0.90 0.90 0.89 0.88 0.85 0.81 0.79 0.75 0.72 0.67 0.64 0.65 0.64 0.61 0.60 0.65 0.70 0.80 0.91 1.02 1.10 1.13 1.17 1.27 1.36